Location: Newark
(40.3500°N, 15.2333°E)
Time: 19:56:37
(UTC+00:00)

Vanguard 1 - All Passes

Search period start: 24 January 2020 00:00
Search period end: 03 February 2020 00:00
Orbit: 651 x 3833 km, 34.2° (Epoch: 24 January)

Date Brightness Start Highest point End Pass type
(mag) Time Alt. Az. Time Alt. Az. Time Alt. Az.
24 Jan - 00:00:08 10° SW 00:01:21 10° SSW 00:02:38 10° SSW night (unlit)
24 Jan - 14:56:32 10° SSW 14:59:44 19° SSE 15:02:56 10° ESE daylight
24 Jan - 17:14:47 10° WSW 17:19:04 43° S 17:24:49 10° ESE visible
24 Jan - 19:33:51 10° W 19:39:03 40° S 19:47:31 10° SE visible
24 Jan - 21:54:15 10° WSW 22:00:10 21° SSW 22:08:51 10° SSE night (unlit)
25 Jan - 15:16:43 10° SW 15:20:28 25° SSE 15:24:17 10° ESE daylight
25 Jan - 17:35:33 10° WSW 17:39:54 45° S 17:45:55 10° ESE visible
25 Jan - 19:54:49 10° WSW 20:00:01 33° SSW 20:08:14 10° SE visible
25 Jan - 22:16:27 10° WSW 22:21:19 16° SSW 22:27:44 10° S night (unlit)
26 Jan - 13:20:38 10° SSE 13:21:42 11° SSE 13:22:42 10° SE daylight
26 Jan - 15:37:13 10° SW 15:41:14 32° SSE 15:45:25 10° ESE daylight
26 Jan - 17:56:23 10° WSW 18:00:46 42° S 18:06:56 10° ESE visible
26 Jan - 20:15:57 10° WSW 20:21:00 27° SSW 20:28:40 10° SE visible
26 Jan - 22:41:28 10° SSW 22:42:30 10° SSW 22:43:35 10° SSW night (unlit)
27 Jan - 13:39:19 10° SSW 13:42:32 16° SSE 13:45:20 10° ESE daylight
27 Jan - 15:57:53 10° WSW 16:02:01 37° S 16:06:28 10° ESE daylight
27 Jan - 18:17:15 10° WSW 18:21:37 38° S 18:27:52 10° ESE visible
27 Jan - 20:37:22 10° WSW 20:42:02 20° SSW 20:48:39 10° SSE visible
28 Jan - 13:59:17 10° SSW 14:03:21 22° SSE 14:06:49 10° ESE daylight
28 Jan - 16:18:39 10° WSW 16:22:50 40° S 16:27:28 10° ESE daylight
28 Jan - 18:38:11 10° WSW 18:42:31 32° SSW 18:48:37 10° SE visible
28 Jan - 20:59:21 10° SW 21:03:05 15° SSW 21:07:51 10° S visible
29 Jan - 12:02:59 10° SSE 12:04:09 10° SSE 12:05:14 10° SE daylight
29 Jan - 14:19:41 10° SW 14:24:10 28° SSE 14:27:59 10° ESE daylight
29 Jan - 16:39:29 10° WSW 16:43:39 40° S 16:48:24 10° ESE visible
29 Jan - 18:59:16 10° WSW 19:03:25 26° SSW 19:09:08 10° SE visible
30 Jan - 12:21:10 10° SSW 12:25:06 16° SSE 12:28:16 10° ESE daylight
30 Jan - 14:40:19 10° SW 14:44:59 34° S 14:49:00 10° ESE daylight
30 Jan - 17:00:24 10° WSW 17:04:28 37° S 17:09:17 10° ESE visible
30 Jan - 19:20:36 10° WSW 19:24:20 19° SSW 19:29:16 10° SSE visible
31 Jan - 12:40:56 10° SSW 12:46:02 21° SSE 12:49:52 10° ESE daylight
31 Jan - 15:01:07 10° WSW 15:05:48 39° S 15:09:56 10° ESE daylight
31 Jan - 17:21:21 10° WSW 17:25:18 32° S 17:30:02 10° SE visible
31 Jan - 19:42:27 10° SW 19:45:17 14° SSW 19:48:42 10° S visible
01 Feb - 10:43:55 10° S 10:46:19 11° SSE 10:48:26 10° SE daylight
01 Feb - 13:01:13 10° SW 13:06:56 28° SSE 13:11:04 10° ESE daylight
01 Feb - 15:22:00 10° WSW 15:26:38 40° S 15:30:48 10° ESE daylight
01 Feb - 17:42:24 10° WSW 17:46:07 26° SSW 17:50:36 10° SE visible
02 Feb - 11:02:01 10° SSW 11:07:23 17° SSE 11:11:25 10° ESE daylight
02 Feb - 13:21:51 10° SW 13:27:49 34° S 13:32:06 10° ESE daylight
02 Feb - 15:42:57 10° WSW 15:47:27 39° S 15:51:38 10° ESE daylight
02 Feb - 18:03:39 10° WSW 18:06:57 20° SSW 18:10:51 10° SSE visible
